This is the latest recevied weather packets stored in our database for station/object K6JWN. If no packets are shown the sender has not sent any weather packets the latest 10 day(s).
| Time | Temp. | Humidity | Pressure | Rain* | Wind** | Luminosity | Snow |
|---|---|---|---|---|---|---|---|
| 1777723937 | 10.56° C | 75% | 1010.5 hPa | 0 mm | - | - | - |
| 1777723336 | 11.11° C | 74% | 1010.6 hPa | 0 mm | - | - | - |
| 1777722736 | 11.11° C | 74% | 1010.6 hPa | 0 mm | - | - | - |
| 1777722136 | 11.11° C | 72% | 1010.8 hPa | 0 mm | - | - | - |
| 1777721536 | 11.11° C | 71% | 1010.9 hPa | 0 mm | - | - | - |
| 1777720936 | 11.11° C | 70% | 1010.8 hPa | 0 mm | - | - | - |
| 1777720336 | 11.67° C | 69% | 1010.9 hPa | 0 mm | - | - | - |
| 1777719736 | 11.67° C | 68% | 1010.9 hPa | 0 mm | - | - | - |
| 1777719136 | 11.67° C | 67% | 1011.1 hPa | 0 mm | - | - | - |
| 1777718536 | 12.22° C | 65% | 1010.9 hPa | 0 mm | - | - | - |
| 1777717936 | 12.22° C | 63% | 1011 hPa | 0 mm | - | - | - |
| 1777717336 | 12.78° C | 62% | 1011 hPa | 0 mm | - | - | - |
| 1777716736 | 12.78° C | 61% | 1010.9 hPa | 0 mm | - | - | - |
| 1777716136 | 13.33° C | 60% | 1010.9 hPa | 0 mm | - | - | - |
| 1777715536 | 13.33° C | 58% | 1011 hPa | 0 mm | - | - | - |
| 1777714936 | 13.33° C | 59% | 1011.1 hPa | 0 mm | - | - | - |
| 1777714336 | 12.78° C | 62% | 1011 hPa | 0 mm | - | - | - |
| 1777713736 | 12.78° C | 62% | 1011.2 hPa | 0 mm | - | - | - |
| 1777713136 | 13.33° C | 62% | 1011 hPa | 0 mm | - | - | - |
| 1777712536 | 13.33° C | 62% | 1011 hPa | 0 mm | - | - | - |
| 1777711936 | 13.33° C | 62% | 1011.2 hPa | 0 mm | - | - | - |
| 1777711336 | 13.89° C | 62% | 1011.2 hPa | 0 mm | - | - | - |
| 1777710736 | 13.89° C | 62% | 1011.2 hPa | 0 mm | - | - | - |
| 1777710136 | 13.89° C | 62% | 1011.3 hPa | 0 mm | - | - | - |
| 1777709536 | 13.89° C | 63% | 1011.3 hPa | 0 mm | - | - | - |
* Rain latest hour (hover to see other rain measurements)
** Current wind speed in m/s (hover to see current wind gust speed)